Weather History for Champaign, IL

Change the Weather History Date:

Sunday, November 4, 2012

  Actual Average Record
Temperature  
Mean Temperature 39 °F 47 °F  
Max Temperature 49 °F 57 °F 78 °F (2003)
Min Temperature 28 °F 37 °F 28 °F (2012)
Degree Days  
Heating Degree Days 26 18  
Month to date heating degree days 101 70  
Since 1 July heating degree days 587 531  
Cooling Degree Days 0 0  
Month to date cooling degree days 0 0  
Year to date cooling degree days 1290 944  
Moisture  
Dew Point 31 °F    
Average Humidity 74    
Maximum Humidity 92    
Minimum Humidity 56    
Precipitation  
Precipitation 0.00 in 0.12 in 0.40 in (2014)
Month to date precipitation 0.14 0.45  
Year to date precipitation 25.57 34.15  
Sea Level Pressure  
Sea Level Pressure 30.22 in    
Wind  
Wind Speed 6 mph (North)    
Max Wind Speed 12 mph    
Max Gust Speed 15 mph    
Visibility 9 miles    
Events      
T = Trace of Precipitation, MM = Missing Value Source: NWS Daily Summary

Daily Weather History Graph

Daily Weather History Graph

Search for Another Location

Airport:

Trip Planner

Search our weather history database for the weather conditions in past years. The results will help you decide how hot, cold, wet, or windy it might be!

Date:

Astronomy

Nov. 04, 2012 Rise Set
Actual Time 6:26 AM CST 4:46 PM CST
Civil Twilight 5:57 AM CST 5:14 PM CST
Nautical Twilight 5:25 AM CST 5:47 PM CST
Astronomical Twilight 4:54 AM CST 6:18 PM CST
Moon 9:24 PM CST (11/4) 11:09 AM CST (11/4)
Length of Visible Light 11h 17m
Length of Day
10h 20m
Waning Gibbous, 72% of the Moon is Illuminated
Nov 4
Waning Gibbous
Nov 6
Last Quarter
Nov 13
New
Nov 20
First Quarter
Nov 28
Full

Hourly Weather History & Observations

Time (CST) Temp. Windchill Dew Point Humidity Pressure Visibility Wind Dir Wind Speed Gust Speed Precip Events Conditions
12:53 AM 30.0 °F 25.2 °F 27.0 °F 88% 30.22 in 10.0 mi North 4.6 mph - N/A   Clear
1:53 AM 30.0 °F 24.1 °F 27.0 °F 88% 30.22 in 10.0 mi North 5.8 mph - N/A   Clear
1:53 AM 30.9 °F 26.2 °F 28.0 °F 89% 30.23 in 10.0 mi North 4.6 mph - N/A   Partly Cloudy
2:53 AM 30.0 °F 26.5 °F 27.0 °F 88% 30.22 in 10.0 mi North 3.5 mph - N/A   Partly Cloudy
3:27 AM 30.2 °F 25.4 °F 28.4 °F 93% 30.21 in 10.0 mi North 4.6 mph - N/A   Mostly Cloudy
3:53 AM 32.0 °F 28.7 °F 28.9 °F 88% 30.23 in 9.0 mi North 3.5 mph - N/A   Overcast
4:53 AM 30.9 °F 26.2 °F 28.9 °F 92% 30.24 in 9.0 mi North 4.6 mph - N/A   Mostly Cloudy
5:53 AM 32.0 °F 27.5 °F 30.0 °F 92% 30.24 in 7.0 mi NW 4.6 mph - N/A   Overcast
6:48 AM 30.2 °F 24.3 °F 28.4 °F 93% 30.22 in 4.0 mi North 5.8 mph - N/A   Scattered Clouds
6:53 AM 32.0 °F 25.6 °F 30.0 °F 92% 30.25 in 4.0 mi NNW 6.9 mph - N/A   Partly Cloudy
7:53 AM 37.0 °F 32.4 °F 33.1 °F 86% 30.25 in 5.0 mi North 5.8 mph - N/A   Clear
8:53 AM 43.0 °F 40.3 °F 36.0 °F 76% 30.26 in 8.0 mi North 4.6 mph - N/A   Clear
9:53 AM 43.0 °F 38.8 °F 36.0 °F 76% 30.26 in 10.0 mi North 6.9 mph - N/A   Overcast
10:53 AM 46.9 °F - 36.0 °F 66% 30.26 in 10.0 mi North 4.6 mph - N/A   Mostly Cloudy
11:21 AM 46.4 °F 41.9 °F 35.6 °F 66% 30.23 in 10.0 mi North 9.2 mph - N/A   Mostly Cloudy
11:31 AM 46.4 °F 41.9 °F 33.8 °F 62% 30.23 in 10.0 mi North 9.2 mph - N/A   Scattered Clouds
11:53 AM 46.9 °F - 34.0 °F 61% 30.24 in 10.0 mi NNE 9.2 mph - N/A   Mostly Cloudy
12:53 PM 46.9 °F - 32.0 °F 56% 30.22 in 10.0 mi North 6.9 mph - N/A   Overcast
1:53 PM 46.9 °F - 32.0 °F 56% 30.22 in 10.0 mi North 4.6 mph - N/A   Overcast
2:53 PM 48.0 °F - 33.1 °F 56% 30.20 in 10.0 mi NNW 5.8 mph - N/A   Overcast
3:53 PM 46.9 °F - 33.1 °F 59% 30.20 in 10.0 mi NNW 5.8 mph - N/A   Mostly Cloudy
4:53 PM 39.9 °F 35.1 °F 32.0 °F 73% 30.20 in 10.0 mi NW 6.9 mph - N/A   Partly Cloudy
5:53 PM 37.0 °F 32.4 °F 30.0 °F 76% 30.21 in 10.0 mi NNW 5.8 mph - N/A   Clear
6:53 PM 34.0 °F 28.8 °F 28.9 °F 82% 30.21 in 10.0 mi NNW 5.8 mph - N/A   Clear
7:53 PM 35.1 °F 31.0 °F 28.9 °F 78% 30.20 in 10.0 mi North 4.6 mph - N/A   Clear
8:53 PM 33.1 °F 28.7 °F 28.0 °F 82% 30.20 in 9.0 mi North 4.6 mph - N/A   Clear
9:53 PM 35.1 °F 32.2 °F 28.9 °F 78% 30.20 in 9.0 mi NNE 3.5 mph - N/A   Clear
10:53 PM 34.0 °F 29.8 °F 28.9 °F 82% 30.20 in 9.0 mi NNE 4.6 mph - N/A   Clear